Probability
0 0 0 0 0 0 1 0 0 0 1 2 3 5 6 6 5 4 3 3 3 3 3 2 1 0 0 0 0 0 0 0 0 0 0 0 0 0 0 0 0 0 0 0
0 0 0 0 0 0 1 0 0 0 1 1 3 4 5 5 4 3 3 3 3 3 2 1 0 0 0 0 0 0 0 0 0 0 0 0 0 0 0 0 0 0 0 0
0 0 0 0 0 0 0 0 0 0 1 1 1 3 4 3 3 4 3 3 2 2 1 0 0 0 0 0 0 0 0 0 0 0 0 0 0 0 0 0 0 0 0 0
0 0 0 0 0 0 0 0 0 1 2 1 2 3 3 3 3 3 2 1 1 1 0 0 0 0 0 0 0 0 0 0 0 0 0 0 0 0 0 0 0 0 0 0
0 0 0 0 0 0 1 1 2 2 3 3 3 3 3 3 2 2 1 0 0 0 0 0 0 0 0 0 0 0 0 0 0 0 0 0 0 0 0 0 0 0 0 0
0 0 0 0 0 0 1 2 3 3 3 3 3 3 2 1 1 0 0 0 0 0 0 0 0 0 0 0 0 0 0 0 0 0 0 0 0 0 0 0 0 0 0 0
0 0 0 0 0 0 0 1 2 2 1 1 2 3 2 0 0 0 0 0 0 0 0 0 0 0 0 0 0 0 0 0 0 0 0 0 0 0 0 0 0 0 0 0
0 0 0 0 0 0 0 0 1 1 0 0 1 2 1 0 0 0 0 0 0 0 0 0 0 0 0 0 0 0 0 0 0 0 0 0 0 0 0 0 0 0 0 0
0 0 0 0 0 0 0 0 0 0 0 0 0 1 1 0 0 0 0 0 0 0 0 0 0 0 0 0 0 0 0 0 0 0 0 0 0 0 0 0 0 0 0 0
0 0 0 0 0 0 0 0 0 0 0 0 0 0 0 0 0 0 0 0 0 0 0 0 0 0 0 0 0 0 0 0 0 0 0 0 0 0 0 0 0 0 0 0
0 0 0 0 0 0 0 0 0 0 0 0 0 0 0 0 0 0 0 0 0 0 0 0 0 0 0 0 0 0 0 0 0 0 0 0 0 0 0 0 0 0 0 0
0 0 0 0 0 0 0 0 0 0 0 0 0 0 0 0 0 0 0 0 0 0 0 0 0 0 0 0 0 0 0 0 0 0 0 0 0 0 0 0 0 0 0 0
0 0 0 0 0 0 0 0 0 0 0 0 0 0 0 0 0 0 0 0 0 0 0 0 0 0 0 0 0 0 0 0 0 0 0 0 0 0 0 0 0 0 0 0
0 0 0 0 0 0 0 0 0 0 0 0 0 0 0 0 0 0 0 0 0 0 0 0 0 0 0 0 0 0 0 0 0 0 0 0 0 0 0 0 0 0 0 0
0 0 0 0 0 0 0 0 0 0 0 0 0 0 0 0 0 0 0 0 0 0 0 0 0 0 0 0 0 0 0 0 0 0 0 0 0 0 0 0 0 0 0 0
0 0 0 0 0 0 0 0 0 0 0 0 0 0 0 0 0 0 0 0 0 0 0 0 0 0 0 0 0 0 0 0 0 0 0 0 0 0 0 0 0 0 0 0
0 0 0 0 0 0 0 0 0 0 0 0 0 0 0 0 0 0 0 0 0 0 0 0 0 0 0 0 0 0 0 0 0 0 0 0 0 0 0 0 0 0 0 0
0 0 0 0 0 0 0 0 0 0 0 0 0 0 0 0 0 0 0 0 0 0 0 0 0 0 0 0 0 0 0 0 0 0 0 0 0 0 0 0 0 0 0 0
0 0 0 0 0 0 0 0 0 0 0 0 0 0 0 0 0 0 0 0 0 0 0 0 0 0 0 0 0 0 0 0 0 0 0 0 0 0 0 0 0 0 0 0
0 0 0 0 0 0 0 0 0 0 0 0 0 0 0 0 0 0 0 0 0 0 0 0 0 0 0 0 0 0 0 0 0 0 0 0 0 0 0 0 0 0 0 0
0 0 0 0 0 0 0 0 0 0 0 0 0 0 0 0 0 0 0 0 0 0 0 0 0 0 0 0 0 0 0 0 0 0 0 0 0 0 0 0 0 0 0 0
0 0 0 0 0 0 0 0 0 0 0 0 0 0 0 0 0 0 0 0 0 0 0 0 0 0 0 0 0 0 0 0 0 0 0 0 0 0 0 0 0 0 0 0
0 0 0 0 0 0 0 0 0 0 0 0 0 0 0 0 0 0 0 0 0 0 0 0 0 0 0 0 0 0 0 0 0 0 0 0 0 0 0 0 0 0 0 0
0 0 0 0 0 0 0 0 0 0 0 0 0 0 0 0 0 0 0 0 0 0 0 0 0 0 0 0 0 0 0 0 0 0 0 0 0 0 0 0 0 0 0 0
0 0 0 0 0 0 0 0 0 0 0 0 0 0 0 0 0 0 0 0 0 0 0 0 0 0 0 0 0 0 0 0 0 0 0 0 0 0 0 0 0 0 0 0
0 0 0 0 0 0 0 0 0 0 0 0 0 0 0 0 0 0 0 0 0 0 0 0 0 0 0 0 0 0 0 0 0 0 0 0 0 0 0 0 0 0 0 0
0 0 0 0 0 0 0 0 0 0 0 0 0 0 0 0 0 0 0 0 0 0 0 0 0 0 0 0 0 0 0 0 0 0 0 0 0 0 0 0 0 0 0 0
Wind_Speed
3 2 1 1 1 1 2 5 6 6 8 9 9 9 10 10 9 9 8 8 8 8 6 6 5 4 4 4 3 3 3 3 2 1 1 2 2 3 3 3 3 3 3 3
2 1 2 3 3 0 2 3 5 7 3 4 6 7 9 10 11 10 9 9 9 8 8 7 7 6 5 4 3 3 3 2 2 1 1 2 2 2 3 3 3 3 3 2
2 3 3 2 3 2 3 3 6 5 5 8 7 8 9 9 10 10 10 9 9 9 8 7 6 6 6 5 4 3 3 2 2 2 1 1 2 2 2 2 2 2 2 2
1 3 1 3 2 5 7 3 2 5 8 9 8 7 6 6 8 9 9 8 8 7 7 6 5 5 5 4 4 3 3 2 2 2 2 2 2 1 1 1 1 1 1 1
3 2 1 1 1 2 5 2 2 7 8 7 8 6 2 3 6 7 7 7 7 6 6 6 6 6 5 4 4 3 3 3 3 3 3 2 1 1 0 0 1 1 1 1
3 3 2 3 2 2 7 1 1 6 9 9 8 4 4 4 6 7 7 6 6 6 6 6 5 6 5 4 3 3 3 3 2 3 3 2 2 1 1 0 1 1 1 1
2 2 2 3 1 2 3 5 4 6 8 8 5 5 5 7 7 7 7 7 7 7 6 5 5 5 5 4 3 3 3 2 2 2 3 2 1 1 1 0 1 2 2 2
3 2 5 2 2 3 5 3 5 5 6 6 5 7 8 8 8 8 7 7 7 6 5 4 5 6 5 3 3 3 3 3 2 2 2 1 1 1 0 0 1 1 2 3
5 5 4 1 3 3 6 7 4 5 6 8 8 8 8 7 8 7 7 6 6 7 6 4 4 5 5 3 3 3 3 2 2 1 0 1 1 1 1 0 0 1 1 1
3 1 2 3 4 4 6 6 6 7 8 8 8 9 8 8 7 6 6 6 6 6 6 4 4 5 5 4 4 4 3 2 1 1 1 1 0 1 1 1 1 1 2 2
3 3 4 3 4 6 7 8 8 7 7 8 10 9 8 7 6 6 5 5 6 6 6 5 4 4 4 4 4 4 3 2 1 1 2 1 1 2 2 3 4 4 3 3
5 6 5 4 4 7 8 8 8 8 7 7 8 9 8 7 6 6 6 5 5 6 5 5 5 4 4 4 4 4 2 2 2 2 1 1 1 2 4 4 5 6 6 5
6 6 6 6 6 6 7 7 7 8 9 8 8 8 8 7 6 6 6 6 6 6 6 5 5 4 4 4 4 4 3 3 2 2 2 2 2 2 3 4 4 5 6 7
9 8 7 5 6 6 8 8 8 8 8 8 8 8 8 7 6 7 6 6 6 6 5 6 5 5 5 4 4 4 3 4 3 3 3 3 3 3 3 3 4 4 5 8
6 7 7 7 7 7 8 9 9 8 8 7 7 8 8 7 7 6 6 6 5 5 5 5 5 5 5 5 4 4 4 3 3 3 3 3 3 3 4 4 4 4 4 5
7 8 9 9 9 8 8 9 8 8 8 7 7 7 8 8 7 6 6 6 6 6 5 5 6 6 5 5 5 4 3 6 5 3 3 3 3 3 4 4 4 4 5 5
9 8 8 8 8 8 8 8 8 8 8 8 8 8 7 7 6 6 5 6 6 6 6 6 6 6 6 6 5 4 3 4 6 4 3 4 4 4 4 4 5 5 6 7
9 9 9 10 9 8 8 8 8 8 8 8 8 8 8 7 7 7 6 5 5 4 5 6 6 6 6 6 5 4 4 3 3 4 4 4 4 4 4 5 6 7 6 6
8 9 9 9 9 9 8 8 8 8 8 8 9 8 8 7 7 6 6 6 6 6 6 6 8 7 6 7 6 4 4 4 4 4 4 6 6 5 5 5 6 6 6 6
8 9 9 8 8 8 8 7 8 8 8 9 8 8 7 7 7 7 6 6 7 7 6 6 6 6 6 6 7 4 4 5 5 5 5 5 5 6 6 6 6 6 6 6
9 9 9 8 8 8 8 8 8 8 8 9 9 9 8 7 7 6 6 5 7 7 7 8 6 5 5 6 6 4 4 5 5 5 5 6 6 6 6 6 6 6 6 6
8 8 8 8 8 7 7 7 8 8 8 8 8 8 7 7 7 6 7 7 7 8 6 5 5 8 8 8 5 5 6 6 6 5 6 6 6 6 6 6 6 6 6 6
7 7 8 8 8 7 7 6 7 8 8 8 8 8 8 7 6 6 6 6 5 9 7 6 8 11 12 7 5 6 6 6 6 6 6 6 6 6 6 7 6 6 6 6
7 7 7 7 7 7 6 6 6 6 7 7 7 8 7 5 4 6 6 7 9 9 6 7 12 13 11 6 5 6 6 6 6 6 6 6 6 6 6 6 6 5 5 6
7 6 6 7 6 5 6 5 5 4 5 4 5 6 6 6 6 6 5 6 9 9 6 8 11 12 8 5 6 6 6 6 6 5 5 6 6 5 5 5 5 5 5 5
6 5 5 5 5 5 4 4 4 4 4 4 4 4 4 4 5 5 4 5 7 8 6 5 5 7 6 6 6 6 6 6 6 6 6 5 6 6 6 5 6 5 5 5
5 4 3 3 3 4 4 4 4 4 5 5 5 4 4 4 4 4 4 4 4 5 5 4 4 4 5 5 6 5 5 5 5 5 5 5 5 6 6 7 6 5 5 4
Wind_Direction
220 234 214 300 283 210 147 169 171 187 174 185 175 164 154 147 146 150 157 164 163 158 154 154 150 148 143 139 137 135 130 127 130 123 87 71 54 40 41 51 62 62 64 48
356 343 51 18 345 121 93 103 124 129 155 168 154 144 148 154 158 163 169 172 165 161 158 161 159 156 150 144 143 135 135 149 150 126 99 75 59 52 54 52 49 55 54 45
301 319 53 11 327 114 114 121 147 170 181 152 149 159 165 168 170 171 171 167 165 166 164 164 161 155 155 156 148 142 148 153 147 133 119 99 97 77 66 51 47 42 38 40
117 43 113 248 300 107 110 95 119 127 142 155 159 157 162 166 168 168 163 161 163 159 156 153 150 148 151 150 150 154 157 157 153 140 136 123 98 87 56 46 41 14 2 17
111 121 168 244 291 147 120 72 113 132 136 131 119 97 104 163 152 159 156 153 156 155 151 148 149 150 145 149 155 160 168 169 166 155 149 142 138 170 243 27 353 314 310 12
119 134 201 241 309 111 98 78 189 139 141 143 131 141 203 165 140 138 138 140 145 142 136 144 154 145 142 155 158 173 177 173 165 155 152 160 184 212 236 225 276 307 335 329
128 149 259 264 254 79 128 218 190 151 148 151 166 179 159 139 130 134 137 141 140 138 140 151 151 139 142 150 170 180 166 144 135 144 158 171 186 220 224 297 348 347 338 322
140 159 242 276 104 152 195 152 136 141 148 146 132 121 126 129 131 135 135 138 138 137 143 149 146 140 142 164 184 161 139 128 131 154 180 162 168 263 291 355 353 334 337 330
167 200 229 170 140 150 133 128 135 142 143 134 130 134 134 135 138 140 141 142 140 140 145 153 156 152 157 181 162 137 130 143 162 162 205 183 191 245 295 336 309 286 292 297
99 134 122 97 99 100 116 126 130 134 133 132 134 139 136 139 140 141 141 141 139 140 146 161 169 165 170 174 154 139 143 163 172 162 258 282 269 214 206 235 242 249 252 254
107 143 95 76 106 114 109 110 113 117 124 133 136 141 143 145 148 148 147 147 147 151 158 169 171 170 174 167 150 144 155 177 205 223 223 249 269 250 226 231 216 208 220 215
185 191 152 164 149 126 120 124 130 126 123 132 138 142 140 145 149 148 148 148 150 155 161 170 171 174 180 174 160 154 168 200 217 226 230 229 248 295 286 256 257 234 222 213
157 153 138 142 135 126 129 133 132 131 137 138 137 138 139 142 147 147 150 154 160 166 170 170 170 180 189 184 172 171 186 206 223 229 226 231 230 235 279 299 283 266 248 235
122 113 110 127 135 129 128 126 121 122 130 135 137 137 137 138 143 150 160 168 167 166 169 169 173 190 199 186 178 188 202 216 221 231 232 236 237 236 236 248 274 281 264 245
125 126 137 136 127 125 126 124 123 128 133 134 138 141 144 147 156 164 169 166 160 164 173 176 184 201 203 188 186 198 207 223 232 237 236 237 240 240 244 246 251 261 271 266
126 121 126 130 135 137 135 137 140 147 148 146 150 156 158 159 162 164 165 163 162 180 191 189 197 208 200 192 196 208 221 234 238 243 252 255 254 250 252 253 256 258 255 253
133 143 145 148 150 151 152 155 156 157 157 157 164 164 158 155 158 167 177 180 181 190 195 195 206 210 199 194 197 209 220 240 250 257 255 255 256 253 249 248 251 255 256 249
155 161 162 161 160 157 157 157 156 157 162 167 162 158 160 164 173 184 189 186 185 199 211 207 205 203 202 202 202 208 214 228 237 246 252 256 256 253 253 253 254 256 264 269
150 155 159 160 160 160 161 161 163 164 164 161 160 166 173 178 183 186 184 180 187 206 225 218 207 201 205 214 210 211 218 231 246 254 255 261 264 260 257 256 258 257 258 261
157 159 160 163 162 160 163 165 163 164 167 164 163 168 177 188 188 185 184 194 207 210 211 208 204 207 213 220 215 211 219 230 243 255 259 260 260 263 263 261 260 260 259 255
163 162 163 166 165 163 163 161 160 165 170 168 169 178 187 195 192 184 183 212 232 216 207 210 209 214 217 220 219 219 226 235 244 252 258 259 262 264 264 263 262 261 259 257
160 158 159 157 153 158 164 161 162 165 167 174 180 181 183 193 197 196 203 213 222 210 203 208 212 218 220 220 219 223 232 240 245 250 255 257 258 262 264 262 260 260 258 253
148 149 151 154 156 160 161 164 167 168 173 181 185 186 190 197 194 192 220 227 212 210 207 213 217 221 223 221 221 225 233 240 246 250 253 253 253 254 257 260 258 255 254 255
141 144 149 149 143 144 161 179 174 175 181 186 191 191 188 192 209 214 214 212 208 208 211 220 221 223 220 220 225 230 236 242 247 252 255 257 257 256 257 258 260 259 257 259
140 138 136 139 147 165 178 178 172 180 185 195 204 203 196 191 198 212 209 208 209 208 218 225 223 223 220 223 227 233 238 242 246 250 252 254 257 258 259 260 259 258 257 257
144 149 157 165 170 174 173 168 175 190 186 194 212 213 207 204 201 200 200 204 204 204 210 218 216 215 218 226 231 234 238 249 258 256 251 249 252 256 258 258 259 257 258 257
145 149 154 162 180 180 176 175 184 197 194 191 204 213 207 202 199 201 201 202 201 206 214 215 212 212 217 224 231 236 238 242 247 251 254 254 254 256 259 260 260 260 259 259